Location: Casa Rossa
(45.2389°N, 12.2056°E)
Time: 23:47:29
(UTC+00:00)

Gbstr 26 Del rocket - Pass Details

Date: 14 July 2020
Orbit: 493 x 1264 km, 51.8° (Epoch: 14 August)

Event Time Altitude Azimuth Distance (km) Brightness Sun altitude
Rises 01:38:53 0° 299° (WNW) 2,686 6.3 -15.8°
Reaches altitude 10° 01:40:57 10° 300° (WNW) 1,855 5.5 -15.6°
Maximum altitude 01:45:07 82° 28° (NNE) 641 3.2 -15.1°
Drops below altitude 10° 01:50:12 10° 117° (ESE) 2,235 6.0 -14.6°
Sets 01:52:53 0° 118° (ESE) 3,292 6.9 -14.3°
